www.pogodaiklimat.ru

Погода и климат >> Архив погоды >> Норвегия >> Маяк Slatteroy


ПОГОДА на Маяке Slatteroy

  • Прогноз погоды на Маяке Slatteroy
  • Монитор погоды на Маяке Slatteroy

АРХИВ ПОГОДЫ на Маяке Slatteroy

Время (UTC), дата Ветер
(напр.,м/с)
 
Видим.   Явления Облачность Т
(С)
Тd
(С)
f
(%)
Тe
(С)
Тes
(С)
Комфортность P
(гПа)
Po
(гПа)
Тmin
(С)
Tmax
(С)
R
(мм)
R24
(мм)
S
(см)
10 18.06 Ю 8
{11}
н/о н/о +13.8 +12.2 90 +11 +11 1011.0 1009.0
11 18.06 Ю 9
{13}
н/о н/о +14.3 +11.3 82 +12 +12 1010.7 1008.8
12 18.06 Ю 9
{14}
н/о н/о +14.1 +10.9 81 +11 +11 1010.7 1008.8
13 18.06 Ю 10
{15}
н/о н/о +14.6 +12.3 86 +12 +12 1010.3 1008.4
14 18.06 Ю 10
{15}
н/о н/о +15.0 +11.4 79 +13 +13 1010.1 1008.2
15 18.06 Ю 10
{15}
н/о н/о +14.3 +12.7 90 +12 +12 1010.2 1008.3
16 18.06 Ю 9
{14}
н/о н/о +14.0 +12.1 88 +11 +11 1010.1 1008.2
17 18.06 Ю 9
{13}
н/о н/о +14.0 +12.1 88 +11 +11 1010.1 1008.2
18 18.06 Ю 8
{15}
н/о н/о +13.5 +11.7 89 +11 +11 1010.4 1008.4 +13.0 +15.1
19 18.06 Ю 9
{12}
н/о н/о +13.4 +11.8 90 +10 +10 1010.5 1008.5
20 18.06 Ю 7
{11}
н/о н/о +13.0 +11.9 93 +10 +10 1010.7 1008.7
21 18.06 Ю 7
{11}
н/о н/о +12.5 +11.7 95 +10 +10 1010.7 1008.7
22 18.06 Ю 6
{10}
н/о н/о +12.4 +11.6 95 +10 +10 1010.9 1008.9
23 18.06 Ю 5
{9}
н/о н/о +12.2 +11.1 93 +10 +10 1010.9 1008.9
00 19.06 ЮВ 5
{12}
н/о н/о +11.5 +10.7 95 +9 +9 1010.8 1008.8
01 19.06 Ю 6
{9}
н/о н/о +11.5 +10.6 94 +8 +8 1010.7 1008.7
02 19.06 Ю 5
{8}
н/о н/о +11.6 +10.5 93 +9 +9 1010.5 1008.5
03 19.06 Ю 5
{7}
н/о н/о +12.2 +10.8 91 +10 +10 1010.5 1008.5
04 19.06 Ю 5
{8}
н/о н/о +12.5 +10.9 90 +10 +10 1010.5 1008.5
05 19.06 Ю 6
{8}
н/о н/о +12.8 +10.7 87 +10 +10 1010.3 1008.3
06 19.06 Ю 7
{10}
н/о н/о +13.9 +9.9 77 +12 +12 1010.4 1008.4 +11.3 +13.9
07 19.06 Ю 7
{10}
н/о н/о +14.5 +8.9 69 +12 +12 1010.3 1008.4
08 19.06 Ю 5
{9}
н/о н/о +14.6 +9.4 71 +13 +13 1010.4 1008.5
09 19.06 Ю 6
{8}
н/о н/о +15.1 +9.0 67 +14 +14 1010.2 1008.3
10 19.06 Ю 5
{7}
н/о н/о +14.1 +10.1 77 +12 +12 1010.0 1008.1
11 19.06 Ю 5
{7}
н/о н/о +14.6 +9.0 69 +13 +13 1009.7 1007.8
12 19.06 ЮЗ 5
{10}
н/о н/о +13.7 +10.7 82 +12 +12 1009.7 1007.8
13 19.06 Ю 4
{6}
н/о н/о +13.4 +11.3 87 +12 +12 1009.5 1007.5
14 19.06 ЮЗ 5
{6}
н/о н/о +13.3 +11.7 90 +11 +11 1009.1 1007.1
15 19.06 Ю 5
{7}
н/о н/о +13.1 +12.2 94 +11 +11 1008.9 1006.9
16 19.06 Ю 5
{8}
н/о н/о +13.4 +11.8 90 +11 +11 1008.5 1006.6
17 19.06 Ю 4
{7}
н/о н/о +13.0 +11.4 90 +11 +11 1008.0 1006.0
18 19.06 З 1
{8}
н/о н/о +12.7 +11.6 93 +13 +13 1007.0 1005.0 +12.7 +15.5
19 19.06 СЗ 1
{2}
н/о н/о +12.7 +11.8 94 +13 +13 1006.9 1004.9
20 19.06 С 1
{2}
н/о н/о +12.6 +11.5 93 +13 +13 1006.8 1004.8
21 19.06 С 1
{2}
н/о н/о +12.5 +11.6 94 +12 +12 1006.4 1004.4
22 19.06 СВ 1
{2}
н/о н/о +12.4 +11.0 91 +12 +12 1006.0 1004.0
23 19.06 н/о
00 20.06 штиль 0
{2}
н/о н/о +12.4 +11.3 93 +12 +12 1005.4 1003.4
01 20.06 штиль 0
{2}
н/о н/о +12.2 +11.3 94 +12 +12 1005.1 1003.1
02 20.06 З 3
{3}
н/о н/о +12.1 +10.8 92 +10 +10 1005.1 1003.1
03 20.06 З 2
{4}
н/о н/о +12.0 +10.4 90 +11 +11 1004.9 1002.9
04 20.06 З 2
{4}
н/о н/о +11.5 +10.7 95 +10 +10 1004.6 1002.6
05 20.06 З 2
{2}
н/о н/о +12.0 +10.9 93 +11 +11 1004.6 1002.6
06 20.06 штиль 0
{4}
н/о н/о +12.0 +10.7 92 +11 +11 1004.5 1002.5 +11.4 +12.9
07 20.06 ЮЗ 3
{4}
н/о н/о +11.8 +10.9 94 +10 +10 1004.6 1002.6
08 20.06 ЮЗ 2
{3}
н/о н/о +12.2 +10.6 90 +11 +11 1004.4 1002.4
09 20.06 ЮЗ 3
{4}
н/о н/о +12.5 +10.2 86 +11 +11 1004.4 1002.5
10 20.06 н/о
11 20.06 ЮЗ 5
{6}
н/о н/о +12.9 +10.4 85 +11 +11 1004.8 1002.9
12 20.06 ЮЗ 5
{6}
н/о н/о +13.0 +10.4 84 +11 +11 1005.0 1003.1
13 20.06 ЮЗ 6
{7}
н/о н/о +13.4 +10.9 85 +11 +11 1005.2 1003.3
14 20.06 ЮЗ 6
{7}
н/о н/о +13.6 +11.3 86 +11 +11 1005.3 1003.4
15 20.06 Ю 7
{8}
н/о н/о +13.3 +11.5 89 +11 +11 1005.4 1003.5
16 20.06 Ю 6
{9}
н/о н/о +13.8 +10.8 82 +12 +12 1005.6 1003.7
17 20.06 Ю 7
{10}
н/о н/о +13.8 +10.8 82 +11 +11 1005.4 1003.5
18 20.06 Ю 8
{11}
н/о н/о +13.8 +11.0 83 +11 +11 1005.4 1003.5 +11.7 +14.0
19 20.06 Ю 7
{13}
н/о н/о +13.1 +11.8 92 +10 +10 1005.7 1003.8
20 20.06 ЮЗ 9
{11}
н/о н/о +12.8 +11.4 91 +10 +10 1005.8 1003.9
21 20.06 ЮЗ 8
{10}
н/о н/о +12.4 +11.1 92 +9 +9 1006.4 1004.4
22 20.06 ЮЗ 7
{10}
н/о н/о +12.2 +10.1 87 +9 +9 1006.9 1004.9
23 20.06 ЮЗ 8
{9}
н/о н/о +12.1 +9.8 86 +9 +9 1007.3 1005.3
00 21.06 Ю 6
{13}
н/о н/о +12.0 +9.6 85 +9 +9 1007.6 1005.6
01 21.06 Ю 6
{9}
н/о н/о +12.0 +9.6 85 +9 +9 1007.7 1005.7
02 21.06 Ю 6
{10}
н/о н/о +12.2 +10.6 90 +9 +9 1007.6 1005.6
03 21.06 Ю 6
{10}
н/о н/о +12.2 +11.1 93 +9 +9 1007.4 1005.4
04 21.06 ЮЗ 8
{11}
н/о н/о +12.0 +10.6 91 +9 +9 1007.5 1005.5
05 21.06 н/о
06 21.06 Ю 5
{11}
н/о н/о +12.2 +10.4 89 +10 +10 1008.2 1006.2 +11.7 +13.8
07 21.06 Ю 6
{7}
н/о н/о +12.3 +10.0 86 +10 +10 1008.6 1006.6
08 21.06 Ю 6
{8}
н/о н/о +12.5 +10.1 85 +10 +10 1009.0 1007.0
09 21.06 Ю 6
{8}
н/о н/о +12.8 +9.4 80 +10 +10 1009.1 1007.1
10 21.06 З 8
{11}
н/о н/о +10.3 +8.4 88 +6 +6 1009.7 1007.7
11 21.06 ЮЗ 5
{9}
н/о н/о +11.4 +8.3 81 +9 +9 1009.8 1007.8
12 21.06 ЮЗ 5
{11}
н/о н/о +11.2 +8.3 82 +8 +8 1010.4 1008.4
13 21.06 ЮЗ 8
{9}
н/о н/о +11.8 +8.1 78 +9 +9 1011.0 1009.0
14 21.06 ЮЗ 8
{10}
н/о н/о +12.2 +8.7 79 +9 +9 1011.4 1009.4
15 21.06 ЮЗ 8
{15}
н/о н/о +12.0 +9.6 85 +9 +9 1011.8 1009.8
16 21.06 ЮЗ 9
{11}
н/о н/о +11.3 +8.4 82 +8 +8 1012.1 1010.1
17 21.06 З 6
{10}
н/о н/о +11.7 +9.1 84 +9 +9 1012.7 1010.7
18 21.06 З 8
{15}
н/о н/о +11.9 +9.3 84 +9 +9 1013.1 1011.1 +10.0 +13.0
19 21.06 З 9
{10}
н/о н/о +11.8 +9.4 85 +8 +8 1013.5 1011.5
20 21.06 З 10
{12}
н/о н/о +11.8 +8.7 81 +8 +8 1014.1 1012.1
21 21.06 З 10
{11}
н/о н/о +11.8 +9.2 84 +8 +8 1014.9 1012.9
22 21.06 З 10
{12}
н/о н/о +11.6 +8.8 83 +8 +8 1015.3 1013.3
23 21.06 н/о
00 22.06 З 10
{13}
н/о н/о +11.7 +9.3 85 +8 +8 1016.4 1014.4
01 22.06 З 7
{14}
н/о н/о +11.0 +8.2 83 +8 +8 1017.1 1015.1
02 22.06 З 10
{12}
н/о н/о +11.3 +8.9 85 +7 +7 1017.5 1015.5
03 22.06 З 9
{12}
н/о н/о +11.4 +8.6 83 +8 +8 1018.1 1016.1
04 22.06 З 9
{10}
н/о н/о +11.3 +8.2 81 +8 +8 1018.5 1016.5
05 22.06 З 8
{11}
н/о н/о +11.5 +8.5 82 +8 +8 1019.3 1017.3
06 22.06 ЮЗ 7
{14}
н/о н/о +11.5 +8.0 79 +8 +8 1019.9 1017.9 +10.2 +12.0
07 22.06 ЮЗ 7
{10}
н/о н/о +11.5 +8.0 79 +8 +8 1020.5 1018.5
08 22.06 ЮЗ 9
{11}
н/о н/о +11.9 +8.0 77 +8 +8 1020.9 1018.9
09 22.06 З 9
{11}
н/о н/о +12.1 +7.8 75 +9 +9 1021.5 1019.5
10 22.06 ЮЗ 7
{10}
н/о н/о +12.5 +8.2 75 +10 +10 1022.2 1020.2
11 22.06 ЮЗ 7
{8}
н/о н/о +12.7 +8.4 75 +10 +10 1022.6 1020.6
12 22.06 ЮЗ 7
{11}
н/о н/о +12.7 +8.4 75 +10 +10 1023.0 1021.0
13 22.06 Ю 8
{9}
н/о н/о +12.7 +8.4 75 +10 +10 1023.0 1021.0
14 22.06 Ю 8
{10}
н/о н/о +13.2 +8.5 73 +10 +10 1023.1 1021.1
15 22.06 Ю 8
{10}
н/о н/о +13.4 +8.3 71 +11 +11 1022.8 1020.8
16 22.06 Ю 8
{11}
н/о н/о +13.1 +8.2 72 +10 +10 1022.6 1020.6
17 22.06 Ю 8
{10}
н/о н/о +13.6 +8.0 69 +11 +11 1022.3 1020.3
18 22.06 Ю 8
{12}
н/о н/о +13.9 +9.4 74 +11 +11 1022.1 1020.1 +11.1 +14.0
19 22.06 Ю 7
{11}
н/о н/о +13.5 +10.7 83 +11 +11 1022.0 1020.0
20 22.06 Ю 7
{11}
н/о н/о +13.4 +10.9 85 +11 +11 1022.2 1020.2
21 22.06 Ю 7
{9}
н/о н/о +13.1 +11.3 89 +10 +10 1022.5 1020.5
22 22.06 Ю 6
{9}
н/о н/о +12.7 +11.3 91 +10 +10 1022.9 1020.9
23 22.06 Ю 5
{8}
н/о н/о +12.5 +10.9 90 +10 +10 1023.1 1021.1
00 23.06 Ю 5
{11}
н/о н/о +12.5 +11.2 92 +10 +10 1023.2 1021.2
01 23.06 Ю 4
{7}
н/о н/о +12.2 +10.9 92 +10 +10 1023.2 1021.2
02 23.06 Ю 4
{6}
н/о н/о +12.1 +11.3 95 +10 +10 1023.3 1021.3
03 23.06 Ю 4
{6}
н/о н/о +11.8 +11.2 96 +9 +9 1023.3 1021.3
04 23.06 Ю 5
{7}
н/о н/о +12.0 +11.4 96 +9 +9 1023.4 1021.4
05 23.06 Ю 4
{7}
н/о н/о +12.5 +11.6 94 +10 +10 1023.8 1021.8
06 23.06 Ю 5
{8}
н/о н/о +12.9 +11.6 92 +11 +11 1024.2 1022.2 +11.7 +13.9
07 23.06 Ю 5
{8}
н/о н/о +13.3 +11.7 90 +11 +11 1024.4 1022.4
08 23.06 Ю 6
{8}
н/о н/о +13.6 +11.5 87 +11 +11 1024.8 1022.8
09 23.06 Ю 6
{8}
н/о н/о +13.6 +11.1 85 +11 +11 1024.9 1022.9
10 23.06 Ю 5
{8}
н/о н/о +13.5 +11.0 85 +12 +12 1025.2 1023.2
11 23.06 Ю 5
{7}
н/о н/о +13.4 +11.3 87 +11 +11 1025.7 1023.7
12 23.06 Ю 5
{8}
н/о н/о +13.5 +11.4 87 +12 +12 1026.0 1024.0
13 23.06 ЮЗ 6
{7}
н/о н/о +13.8 +11.7 87 +12 +12 1026.6 1024.6
14 23.06 ЮЗ 3
{6}
н/о н/о +14.5 +11.8 84 +14 +14 1026.8 1024.8
15 23.06 З 2
{4}
н/о н/о +14.5 +11.8 84 +14 +14 1026.8 1024.8
16 23.06 З 2
{3}
н/о н/о +14.5 +11.8 84 +14 +14 1026.4 1024.4
17 23.06 СЗ 2
{3}
н/о н/о +14.2 +11.4 83 +14 +14 1026.3 1024.3
18 23.06 СЗ 3
{7}
н/о н/о +13.8 +11.2 84 +13 +13 1026.4 1024.4 +12.8 +14.8
19 23.06 С 3
{4}
н/о н/о +13.7 +10.7 82 +13 +13 1026.4 1024.4
20 23.06 С 4
{5}
н/о н/о +13.6 +10.6 82 +12 +12 1026.8 1024.8
21 23.06 С 3
{6}
н/о н/о +13.1 +10.8 86 +12 +12 1027.4 1025.4
22 23.06
{5}
н/о н/о +12.8 +11.0 89 1027.3 1025.3
23 23.06 С 2
{5}
н/о н/о +12.6 +11.3 92 +12 +12 1027.7 1025.7
00 24.06 С 3
{6}
н/о н/о +12.3 +11.0 92 +11 +11 1027.5 1025.5
01 24.06 С 3
{5}
н/о н/о +12.2 +10.9 92 +11 +11 1027.3 1025.3
02 24.06 СВ 5
{6}
н/о н/о +12.0 +10.6 91 +9 +9 1026.7 1024.7
03 24.06 СВ 5
{6}
н/о н/о +12.0 +10.6 91 +9 +9 1026.5 1024.5
04 24.06 СВ 4
{7}
н/о н/о +12.5 +10.2 86 +11 +11 1026.6 1024.6
05 24.06 СВ 5
{6}
н/о н/о +13.2 +9.3 77 +11 +11 1026.5 1024.5
06 24.06 СВ 5
{7}
н/о н/о +13.3 +9.7 79 +11 +11 1026.4 1024.4 +11.9 +14.1
07 24.06 СВ 5
{7}
н/о н/о +13.7 +9.8 77 +12 +12 1026.4 1024.4
08 24.06 СВ 3
{6}
н/о н/о +14.5 +9.9 74 +14 +14 1026.6 1024.6
09 24.06 СВ 3
{4}
н/о н/о +14.9 +10.7 76 +14 +14 1026.7 1024.7
10 24.06 ЮЗ 1
{4}
н/о н/о +16.6 +8.8 60 +18 +18 1027.2 1025.2
11 24.06 ЮЗ 3
{4}
н/о н/о +16.6 +9.3 62 +16 +16 1027.3 1025.3
12 24.06 Ю 2
{7}
н/о н/о +16.6 +9.3 62 +17 +17 1027.5 1025.5
13 24.06 ЮЗ 1
{4}
н/о н/о +15.9 +9.8 67 +17 +17 1027.4 1025.4
14 24.06 ЮЗ 2
{4}
н/о н/о +15.0 +12.1 83 +15 +15 1027.1 1025.1
15 24.06 С 3
{3}
н/о н/о +14.0 +11.3 84 +13 +13 1026.9 1024.9
16 24.06 С 4
{6}
н/о н/о +13.8 +12.2 90 +12 +12 1026.0 1024.0
17 24.06 С 5
{7}
н/о н/о +13.3 +11.9 91 +11 +11 1026.0 1024.0
18 24.06 н/о
19 24.06 С 7
{10}
н/о н/о +12.8 +12.5 98 +10 +10 1024.3 1022.3
20 24.06 СВ 6
{10}
н/о н/о +13.1 +13.0 99 +11 +11 1024.3 1022.3
21 24.06 СВ 7
{10}
н/о н/о +13.6 +13.1 97 +11 +11 1024.5 1022.5
22 24.06 СВ 5
{8}
н/о н/о +13.4 +13.1 98 +11 +11 1024.4 1022.4
23 24.06 СВ 6
{7}
н/о н/о +13.4 +13.3 99 +11 +11 1023.9 1021.9
00 25.06 СВ 5
{10}
н/о н/о +13.2 +13.1 99 +11 +11 1023.8 1021.8
01 25.06 СВ 3
{7}
н/о н/о +13.3 +13.2 99 +12 +12 1022.7 1020.7
02 25.06 СВ 2
{5}
н/о н/о +13.2 +13.1 99 +12 +12 1022.7 1020.7
03 25.06 СВ 4
{7}
н/о н/о +13.2 +12.9 98 +11 +11 1022.3 1020.3
04 25.06 СВ 4
{8}
н/о н/о +12.9 +12.8 99 +11 +11 1022.1 1020.1
05 25.06 В 2
{6}
н/о н/о +12.7 +12.6 99 +12 +12 1022.1 1020.1
06 25.06 СВ 5
{8}
н/о н/о +12.6 +12.5 99 +10 +10 1021.4 1019.4 +12.6 +13.7
07 25.06 СВ 10
{12}
н/о н/о +12.5 +12.4 99 +9 +9 1021.0 1019.0
08 25.06 СВ 10
{13}
н/о н/о +12.8 +12.3 97 +9 +9 1021.1 1019.1
09 25.06 СВ 9
{13}
н/о н/о +13.4 +12.3 93 +10 +10 1021.1 1019.1
10 25.06 СВ 3
{10}
н/о н/о +14.3 +12.3 88 +13 +13 1021.7 1019.7

 

Местоположение метеостанции Маяк Slatteroy (Норвегия): широта 59.91 долгота 5.07 высота над уровнем моря 25 м.

В архиве по умолчанию представлена погода на Маяке Slatteroy за последнюю неделю. Архивные данные за месяц целиком и за предыдущие месяцы, начиная с января 2011 года, Вы можете получить, выбрав интересующий диапазон дат из раскрывающегося списка и нажав кнопку "Ввод!".


*Определитесь, кто Вы:
робот инопланетянин человек

Внимание! Время в таблицах - всемирное. Для получения местного времени необходимо прибавить поправку, которая равна 1 ч.

Смотрите также архив погоды в соседних городах и на ближайших метеорологических станциях:

Погода в Эустеволле (Норвегия) (15 км)
Погода в Роваере (Норвегия) (52 км)
Погода в Бергене (Норвегия) (54 км)
Погода в Недре Ватс (Норвегия) (59 км)
Погода в Аэропорту Haugesund (Норвегия) (63 км)
Погода на Маяке Utsira (Норвегия) (68 км)
Погода в Квамскогене (Норвегия) (72 км)
Погода в Фоссмарке (Норвегия) (77 км)
Погода в Сауде (Норвегия) (77 км)
Погода на Квамсое (Норвегия) (83 км)

Пояснения к столбцам:

Ветер - указаны скорость ветра в м/с - средняя за 10 мин, порывы в срок и между сроками (в фигурных скобках) и направление, откуда дует ветер: С - северный, СВ - северо-восточный, В - восточный, ЮВ - юго-восточный, Ю - южный, ЮЗ - юго-западный, З - западный, СЗ - северо-западный.
Видимость - горизонтальная дальность видимости в метрах или километрах. При видимости от 1 до 10 км при отсутствии осадков обычно наблюдается дымка, при ухудшении видимости до 1 км и менее - туман. В сухую погоду видимость может ухудшаться дымом, пылью или мглою.
Явления - указаны атмосферные явления, наблюдавшиеся в срок или в последний час перед сроком; фигурными скобками обозначены явления, наблюдавшиеся между сроками (за 1-3 часа до срока); квадратными скобками обозначены град или гололедные отложения с указанием их диаметра в мм.
Облачность - указаны через наклонную черту общая и нижняя облачность в баллах и высота нижней границы облаков в метрах; квадратными скобками обозначены формы облаков: Ci - перистые, Cs - перисто-слоистые, Cc - перисто-кучевые, Ac - высококучевые, As - высокослоистые, Sc - слоисто-кучевые, Ns - слоисто-дождевые, Cu - кучевые, Cb - кучево-дождевые. Подробнее классификацию облаков см. в Атласе облаков (PDF).
T - Температура воздуха - температура, измеренная на высоте 2 м над землей.
Td - Температура точки росы - температура, при понижении до которой содержащийся в воздухе водяной пар достигнет насыщения.
f - Относительная влажность воздуха - влажноcть воздуха, измеренная на высоте 2 м над землей.
Te - Эффективная температура - температура, которую ощущает одетый по сезону человек в тени. Характеристика душности погоды. При расчете учитывается влияние влажности воздуха и скорости ветра на теплоощущения человека.
Tes - Эффективная температура на солнце - температура, которую ощущает человек, с поправкой на солнечный нагрев. Характеристика знойности погоды. Зависит от высоты солнца над горизонтом, облачности и скорости ветра. Ночью, в пасмурную погоду, а также при ветре 12 м/с и более поправка равна нулю.
P - Атмосферное давление - приведенное к уровню моря атмосферное давление.
Po - Атмосферное давление - измеренное на уровне метеостанции атмосферное давление.
Tmin - Минимальная температура - минимум температуры воздуха на высоте 2 м над землей.
Tmax - Максимальная температура - максимум температуры воздуха на высоте 2 м над землей.
R - Количество осадков - Количество выпавших осадков за период времени, мм. При наведении курсора мыши на число - период времени, за который выпало указанное количество осадков.
R24 - Количество осадков - Количество выпавших осадков за 24 часа, мм.
S - Снежный покров - Высота снежного покрова, см. При наведении курсора мыши на число - состояние снежного покрова и степень покрытия местности в баллах.